User: anonymous   Login
Location: Unspecified
(0.0000°N, 0.0000°E)
Time: 07:14:47
(UTC+00:00)
Language:

Kosmos-1553 - Orbit

View from above orbital plane
View from above orbital plane
View from above satellite
View from above satellite

Ground track
Ground track

The orbit data is extracted from the following two-line orbital elements,

1 14973U 84046A   23088.82894064  .00000150  00000-0  14030-3 0  9995
2 14973  82.9376  44.4475 0031337 316.3988 107.1146 13.75421744950130
Epoch (UTC): 29 March 2023 19:53:40
Eccentricity: 0.0031337
inclination: 82.9376°
perigee height: 957 km
apogee height: 1003 km
right ascension of ascending node: 44.4475°
argument of perigee: 316.3988°
revolutions per day: 13.75421744
mean anomaly at epoch: 107.1146°
orbit number at epoch: 95013

The dashed part of the orbit path shows where the satellite is in the earth's shadow,  

DLR